Hourly Data Report for July 19, 2021

TORONTO CITY
ONTARIO
Current Station Operator: ECCC - MSC

43°40'00.000" N
79°24'00.000" W
112.50 m
6158355
71508
XTO

Download Data

Hourly Data (July 2021)
Hourly Data Report for July 19, 2021
TIME
LST
Temp Definition
°C
Dew Point Definition
°C
Rel Hum Definition
%
Precip. Amount Definition
mm

Wind Dir Definition
10's deg

Wind Spd Definition
km/h
Visibility Definition
km
Stn Press Definition
kPa
Hmdx Definition


Wind Chill Definition


Weather Definition


00:00 22.4 16.1 67 0.0       100.47 27   LegendNANA
01:00 21.9 15.7 68 0.0       100.45 26   LegendNANA
02:00 21.4 15.8 71 0.0       100.41 26   LegendNANA
03:00 21.2 15.4 70 0.0       100.40 25   LegendNANA
04:00 20.6 15.8 74 0.0       100.40 25   LegendNANA
05:00 20.7 16.1 75 0.0       100.41 25   LegendNANA
06:00 21.1 16.6 75 0.0       100.44 26   LegendNANA
07:00 22.0 17.1 74 0.0       100.44 27   LegendNANA
08:00 23.8 17.7 69 0.0       100.46 30   LegendNANA
09:00 25.7 18.6 65 0.0       100.46 32   LegendNANA
10:00 27.2 18.2 58 0.0       100.43 33   LegendNANA
11:00 28.0 18.6 57 0.0       100.41 34   LegendNANA
12:00 28.9 17.4 50 0.0       100.37 34   LegendNANA
13:00 29.7 18.0 50 0.0       100.34 36   LegendNANA
14:00 29.2 17.4 49 0.0       100.31 35   LegendNANA
15:00 29.0 18.2 52 0.0       100.28 35   LegendNANA
16:00 29.0 18.6 54 0.0       100.26 35   LegendNANA
17:00 28.3 18.3 55 0.0       100.23 35   LegendNANA
18:00 28.0 18.4 56 0.0       100.22 34   LegendNANA
19:00 27.3 18.3 58 0.0       100.21 34   LegendNANA
20:00 26.1 18.6 63 0.0       100.23 33   LegendNANA
21:00 24.7 18.4 68 0.0       100.26 31   LegendNANA
22:00 23.9 18.5 72 0.0       100.26 30   LegendNANA
23:00 23.3 18.6 75 0.0       100.25 30   LegendNANA

Notes on Data Quality.

Legend

  • E = Estimated
  • M = Missing
  • NA = Not Available*
  • [empty] = Indicates an unobserved value
Date modified: